Regional Weather Roundup
Issued by NWS Kansas City/Pleasant Hill, MO

Home | Current Version | Previous Version | Text Only | Print | Product List | Glossary On
Versions: 1 2 3 4 5 6 7 8 9 10 11 12 13 14 15 16 17 18 19 20 21 22 23 24 25 26 27 28 29 30 31 32 33 34 35 36 37 38 39 40 41 42 43 44 45 46 47 48 49 50
000
ASUS43 KEAX 100211
RWREAX

WEATHER ROUNDUP FOR EASTERN KANSAS AND NORTHWEST MISSOURI
NATIONAL WEATHER SERVICE KANSAS CITY/PLEASANT HILL MO
900 PM CDT WED JUL 09 2014

KSZ040-057-103>105-MOZ028-029-037-043-100300-
...KANSAS CITY METROPOLITAN AREA...

CITY           SKY/WX    TMP DP  RH WIND       PRES   REMARKS
K.C. INTL      MOCLDY    76  59  55 E8        30.03R
K.C. DOWNTOWN  PTCLDY    78  60  53 E9        30.01R
LEES SUMMIT    PTCLDY    72  62  71 E5        30.04R
OLATHE - IXD   PTCLDY    75  61  61 E7        30.03R
OLATHE - OJC   PTCLDY    74  59  59 E5        30.02R
LAWRENCE       CLEAR     73  65  75 E7        30.02R

$$

MOZ001>008-011>017-020>025-030>033-038>040-044>046-053-054-100300-
...NORTHERN AND CENTRAL MISSOURI...

CITY           SKY/WX    TMP DP  RH WIND       PRES   REMARKS
ST. JOSEPH     PTCLDY    75  60  59 E5        30.02S
MOSBY          PTCLDY    73  61  64 CALM      30.02S
WARRENSBURG    PTCLDY    72  61  68 E3        30.03R
WHITEMAN AFB   CLEAR     71  59  66 E2        30.03R
CLINTON        CLEAR     73  66  78 CALM      30.03R
SEDALIA        CLEAR     73  62  68 NE3       30.05R
WARSAW         NOT AVBL
MARSHALL         N/A     75  63  64 NE3       30.05R HAZE
CHILLICOTHE      N/A     70  63  78 CALM      30.05R
MOBERLY        PTCLDY    70  61  73 NE3       30.05R
KIRKSVILLE     PTCLDY    66  62  87 CALM      30.05R

$$

MOZ041-047>049-056>058-063>065-088>090-097-100300-
...EASTERN AND SOUTHERN MISSOURI...

CITY           SKY/WX    TMP DP  RH WIND       PRES   REMARKS
ST. LOUIS INTL PTCLDY    74  58  57 N6        30.02R
SPIRIT OF STL  CLEAR     75  56  51 CALM      30.01R
COLUMBIA       CLEAR     71  59  65 N5        30.04R
JEFFERSON CITY CLEAR     72  65  78 CALM      30.01S
MEXICO         CLEAR     70  64  83 NE5       30.04R
ROLLA            N/A    N/A N/A N/A MISG      30.02S
LEBANON        CLEAR     73  61  64 NE3       30.05S
OSAGE BEACH    CLEAR     70  63  78 N5        30.03R
SPRINGFIELD    CLEAR     73  63  70 CALM      30.04R
BRANSON        PTCLDY    73  63  68 CALM      30.05S
NEVADA         PTCLDY    72  68  88 CALM      30.03R
JOPLIN         CLEAR     74  60  61 NE5       30.02S
WEST PLAINS    CLEAR     71  64  78 CALM      30.05R
PIEDMONT       CLEAR     72  68  88 CALM      30.01R

$$

IAZ060-094-KSZ022-034>040-054-083-096-NEZ052-066-093-100300-
...KANSAS...SOUTHEAST NEBRASKA AND IOWA...

CITY           SKY/WX    TMP DP  RH WIND       PRES   REMARKS
TOPEKA         CLEAR     77  65  66 E6        30.01R
MANHATTAN      CLEAR     79  64  60 E9        29.99R
EMPORIA        CLEAR     74  61  63 SE7       30.00R
CHANUTE        CLEAR     75  61  61 E6        30.00S
WICHITA        PTCLDY    80  61  52 SE10      29.96S
OMAHA          CLOUDY    76  60  57 SW6       30.00S
LINCOLN        CLOUDY    71  63  75 SE3       30.00F
FALLS CITY     LGT RAIN  74  64  71 S5        30.01S
LAMONI         PTCLDY    73  58  59 SE5       30.03S
DES MOINES     PTCLDY    75  59  57 S5        30.01R

$$



USA.gov is the U.S. government's official web portal to all federal, state and local government web resources and services.